Theta_e
351 356 340 336 337 340 344 347 347 347 346 339 333 335 339 330 329 328 337 343 345 342 342 340 339 343 339 339 342 335 335 328 325 327 334 334 334 333 337 336 341 343 337
352 356 340 335 335 338 343 346 347 348 344 335 333 334 336 330 331 333 338 345 346 345 343 342 341 345 343 334 336 336 328 327 330 335 337 337 337 335 336 337 342 344 339
354 356 344 336 334 335 341 347 348 347 342 334 334 336 336 333 331 335 338 345 347 348 347 344 346 345 344 338 331 332 327 329 335 338 343 349 347 335 337 338 338 339 340
356 356 352 337 335 334 336 342 344 343 342 338 341 342 340 337 334 335 337 343 346 347 346 346 344 342 341 338 333 327 327 330 335 337 348 346 345 338 338 340 341 341 340
356 355 355 338 336 334 333 333 337 342 343 344 346 347 344 342 339 335 337 338 340 344 344 344 343 342 340 335 332 327 327 329 333 336 345 345 346 346 339 341 344 343 338
356 354 355 339 337 335 333 331 331 335 342 345 346 347 345 342 340 336 336 338 341 343 341 342 340 334 329 328 329 327 328 329 330 345 345 347 346 348 342 340 340 341 338
354 354 355 340 338 336 334 332 330 331 336 341 344 344 343 342 339 334 333 337 341 343 343 342 340 338 334 327 327 327 328 329 339 347 351 351 351 351 347 341 340 339 334
354 353 356 343 340 337 336 334 330 330 333 336 338 339 338 337 335 332 334 338 339 342 344 343 342 339 333 332 326 327 329 329 341 349 347 349 351 350 349 345 341 339 333
353 352 355 353 349 340 338 336 333 330 332 334 333 334 334 333 331 331 334 336 338 339 339 339 340 340 335 329 329 326 330 331 340 345 346 348 349 348 347 346 343 340 334
355 354 354 353 353 352 350 339 336 333 332 333 332 333 334 334 334 334 335 336 336 339 341 342 342 341 335 331 326 326 326 329 336 341 342 346 347 345 346 345 343 341 336
356 356 355 355 354 352 351 352 342 337 333 334 335 333 336 340 343 344 342 345 343 343 343 343 342 341 339 336 333 327 326 331 331 333 337 343 345 343 345 345 344 344 339
353 354 355 358 356 354 351 354 351 350 347 344 344 347 343 344 344 343 344 343 340 341 342 342 342 341 340 341 341 340 335 331 331 333 335 338 340 340 340 342 344 345 345
338 342 348 356 359 356 353 353 352 352 351 350 349 349 347 347 346 344 343 345 345 344 345 343 347 347 343 342 341 339 337 335 333 333 332 333 334 335 334 337 338 343 344
330 335 344 352 359 359 356 354 352 352 352 351 350 350 348 348 348 347 344 345 346 346 345 344 343 342 344 344 342 341 340 339 337 334 332 331 332 331 329 331 334 337 345
324 332 340 350 358 359 358 357 354 353 351 351 351 350 349 348 349 345 344 343 342 346 346 346 346 346 344 344 342 339 339 339 339 338 337 335 332 330 326 326 327 334 338
323 325 338 348 357 359 359 358 357 355 354 352 350 350 350 350 350 352 351 350 350 348 348 346 345 346 346 346 345 343 341 339 338 338 337 337 337 335 332 324 324 327 336
322 326 340 351 358 360 359 358 357 355 352 352 352 352 351 351 352 352 350 346 340 340 343 342 343 342 343 343 343 347 347 344 342 340 340 338 336 337 335 333 324 325 328
323 326 342 342 354 360 358 357 355 354 353 352 353 352 353 352 350 344 336 334 334 335 335 336 337 337 337 338 340 342 345 348 346 342 342 342 343 344 341 335 330 326 331
324 326 334 347 351 357 357 356 355 354 353 352 350 348 343 337 337 336 332 330 331 330 330 332 333 334 335 337 337 337 340 345 348 346 343 343 344 345 345 337 334 330 331
324 325 335 348 353 355 355 354 351 351 350 343 336 334 335 333 331 329 326 329 329 326 326 327 331 331 333 333 334 336 338 339 342 345 347 346 345 345 347 341 336 335 332
328 334 341 349 353 352 351 350 345 337 334 332 331 331 330 328 328 328 326 325 326 325 327 330 331 330 331 332 333 334 335 336 338 341 345 347 347 347 346 345 341 337 335
332 336 338 340 341 341 339 335 333 332 331 329 329 329 328 327 328 327 327 325 323 323 323 326 330 332 331 333 337 336 340 335 333 335 340 343 345 346 346 346 345 342 339
332 332 332 333 333 332 331 331 330 329 327 327 327 327 327 327 326 327 327 327 328 327 324 325 326 328 329 331 334 338 341 338 335 334 335 341 341 344 344 346 346 345 343
328 329 329 329 329 328 327 328 329 326 326 325 323 322 322 323 323 322 322 323 324 325 324 323 323 326 328 329 331 335 339 340 340 342 333 334 338 341 344 346 345 347 345
326 326 326 325 325 324 324 323 322 322 321 320 320 320 320 319 319 319 319 320 321 321 321 324 326 326 326 327 329 333 335 335 336 342 342 336 332 333 338 339 341 344 345
323 323 323 323 323 322 321 321 321 321 321 320 320 319 317 317 316 317 317 318 319 319 320 321 324 326 327 327 328 330 334 337 336 335 339 338 337 335 334 334 342 342 343
Wind_Speed
13 17 20 19 16 13 14 18 19 18 17 16 18 19 19 18 19 20 20 19 16 15 13 11 10 9 6 5 7 9 10 11 11 10 9 8 8 7 6 5 7 5 3
16 18 21 20 18 14 14 18 20 18 17 17 20 19 18 17 18 18 18 17 15 13 11 9 9 10 6 5 7 8 10 10 9 9 8 7 7 6 4 4 6 2 1
17 18 19 20 18 16 14 17 19 18 18 18 19 17 16 16 16 17 17 16 14 10 8 8 8 9 6 5 6 8 9 10 9 8 7 6 5 3 3 2 2 1 0
17 18 17 20 18 16 15 16 16 16 17 17 16 15 14 14 14 15 15 15 12 9 7 6 7 7 6 6 6 8 10 10 9 7 4 3 3 2 2 2 1 2 2
16 18 17 19 17 16 14 13 13 15 16 16 15 14 13 13 13 14 14 14 12 8 6 6 6 7 7 7 8 9 10 10 10 7 5 3 2 6 2 2 3 5 3
16 16 17 19 17 15 14 12 12 13 13 15 16 15 13 13 12 13 13 13 11 8 5 5 6 6 6 7 8 10 10 10 9 8 6 6 5 6 6 5 4 6 6
16 14 15 18 16 14 12 12 12 13 14 14 15 13 13 13 13 13 14 14 11 8 6 5 6 6 7 7 9 10 11 12 11 11 8 8 8 11 11 9 7 6 5
14 14 15 17 15 14 12 11 12 13 14 14 13 13 13 12 12 12 13 13 11 9 8 7 7 7 8 9 10 12 12 13 12 12 10 11 10 16 15 13 10 8 6
12 13 13 14 14 14 12 11 11 12 12 12 12 12 12 12 12 12 12 11 10 9 9 9 8 9 9 10 12 13 14 15 15 15 13 12 10 12 12 14 13 10 8
11 11 12 13 13 12 11 13 12 11 12 11 11 11 11 11 11 11 12 11 11 10 9 9 9 10 10 11 13 15 16 18 18 18 17 16 14 11 10 13 14 12 11
9 10 10 11 12 12 11 11 13 12 12 11 10 11 10 8 9 9 10 12 11 10 10 11 11 11 13 14 14 15 17 17 19 20 19 18 18 14 12 14 16 15 14
9 9 10 11 12 12 12 11 12 11 11 11 10 10 9 8 8 9 9 12 13 13 13 14 14 14 14 13 15 12 15 18 20 21 20 20 21 20 17 17 19 19 19
6 7 8 11 13 13 13 13 12 13 12 11 11 11 9 8 7 7 8 7 8 11 11 13 12 12 13 14 14 16 16 17 19 21 22 24 26 26 23 22 21 22 23
3 5 8 10 13 14 13 13 12 12 12 11 11 10 8 8 6 6 6 6 7 8 10 11 13 14 15 16 18 19 20 20 20 21 22 24 27 28 27 27 26 24 25
5 5 5 9 11 13 13 11 11 11 10 9 8 8 7 5 5 5 7 8 8 8 9 11 13 15 16 18 18 20 22 23 24 24 24 23 25 28 28 30 30 28 27
5 4 5 8 11 12 13 11 9 8 8 8 7 6 6 4 4 3 4 5 7 9 9 11 14 15 18 19 20 22 23 24 26 27 27 26 26 28 29 30 31 31 29
8 6 8 8 10 11 11 11 9 8 8 8 7 6 6 5 3 3 5 6 7 8 11 13 14 16 18 20 22 24 25 25 26 27 28 28 28 30 30 30 32 32 32
8 7 8 8 9 10 11 11 9 9 8 7 7 6 5 4 3 2 4 7 9 12 13 15 17 20 21 23 23 24 24 25 25 27 27 27 27 27 27 30 29 33 34
8 8 8 10 11 10 9 10 9 8 7 6 6 5 6 4 2 2 5 7 9 13 15 17 19 21 24 25 27 27 26 25 27 27 27 28 29 29 28 28 30 30 35
6 7 9 11 12 11 11 11 10 9 8 8 7 7 6 4 2 3 5 6 8 12 16 17 19 22 23 25 26 30 30 28 29 30 29 28 29 30 29 28 28 28 34
7 9 10 12 12 12 11 11 11 12 11 9 7 7 5 3 3 5 7 9 11 13 15 17 19 21 22 22 26 26 28 28 29 30 28 31 31 30 30 29 29 29 30
12 13 14 14 13 12 11 9 10 12 10 8 6 4 3 3 5 7 10 12 13 16 18 19 17 21 22 20 21 24 13 19 26 28 28 26 28 30 32 32 31 30 30
15 15 16 17 17 15 15 14 13 11 8 5 3 1 2 6 8 10 12 14 15 16 20 18 20 21 24 23 20 14 8 12 12 20 21 22 22 24 26 29 30 30 30
15 14 14 15 15 13 12 10 8 5 4 2 2 3 7 8 10 13 15 16 17 20 23 22 21 20 22 25 25 22 25 26 12 13 22 22 21 23 25 27 28 23 26
11 11 10 11 12 11 10 8 5 3 2 1 4 7 9 10 13 16 17 19 20 21 23 23 24 23 23 25 25 24 24 27 23 9 11 16 27 28 23 22 24 21 23
7 7 7 7 7 7 6 5 5 3 0 4 5 9 11 13 16 17 18 20 21 23 24 25 24 24 25 25 26 27 24 18 18 16 12 14 16 26 26 25 14 18 21
Wind_Direction
154 159 161 161 165 164 164 172 176 172 166 163 161 157 159 156 151 150 150 147 142 144 146 153 157 158 148 137 148 153 151 154 151 146 133 126 117 117 120 116 99 102 93
153 159 162 162 165 165 163 173 177 173 168 166 164 161 162 157 156 157 156 155 150 147 149 156 162 166 164 150 159 163 161 162 161 151 142 131 134 130 134 124 118 148 92
151 156 160 164 165 166 165 172 177 172 171 168 166 162 163 161 162 165 163 160 157 149 151 160 165 178 184 179 172 175 174 175 173 166 143 163 160 148 155 158 159 224 99
152 156 161 167 166 168 168 173 175 177 175 172 168 167 167 166 168 172 172 171 169 167 170 174 180 188 200 209 202 192 185 185 187 187 200 174 152 205 176 210 257 296 300
155 157 165 168 167 169 171 174 176 180 181 179 178 175 171 175 176 178 180 182 183 188 191 196 203 211 220 221 212 204 199 195 200 207 246 228 249 236 249 240 314 328 346
154 158 175 171 172 172 170 175 179 180 182 183 183 181 181 182 184 183 185 185 186 193 200 205 213 222 227 222 214 210 209 210 208 224 238 247 253 248 273 254 228 252 282
155 159 166 174 176 176 173 173 177 182 185 186 188 191 190 189 188 187 186 187 192 200 208 217 233 235 239 232 222 219 218 220 224 241 248 257 261 262 266 250 257 265 273
153 157 168 177 181 181 180 177 178 181 185 190 194 194 193 191 190 190 191 195 205 214 222 229 240 248 246 243 236 232 231 227 242 252 250 257 263 273 264 244 245 250 255
152 160 166 174 181 187 188 186 183 183 186 188 189 192 192 191 192 194 200 211 222 233 237 238 241 251 254 251 247 241 239 238 240 251 252 255 260 275 246 236 244 249 247
160 169 172 177 183 184 195 195 191 188 188 188 189 191 193 197 201 204 210 220 224 232 238 246 254 261 262 260 253 250 246 245 248 252 254 252 258 271 242 235 244 248 248
175 178 182 184 189 194 191 201 194 193 193 194 194 196 195 197 212 220 223 229 239 237 243 251 258 263 267 267 266 258 254 250 250 250 252 250 253 257 245 244 250 252 247
182 189 193 195 199 198 197 192 187 193 191 191 196 198 195 207 212 213 226 244 246 248 252 256 262 265 270 264 258 259 254 253 252 253 253 254 254 254 249 248 251 255 252
180 180 203 199 204 203 200 196 193 191 194 198 196 198 206 209 218 228 237 253 254 265 264 262 262 260 255 259 263 261 262 259 258 259 258 257 255 255 252 251 251 254 255
199 198 204 205 205 206 204 197 198 187 190 189 196 200 207 213 225 238 250 262 266 272 278 275 271 268 265 263 262 264 263 263 263 263 262 261 262 262 254 252 251 251 253
197 195 211 209 206 203 205 203 199 195 194 190 195 203 207 222 235 253 257 270 273 281 289 283 279 277 273 268 267 263 262 260 260 261 263 265 265 267 260 256 255 251 250
229 226 208 205 201 194 197 197 195 196 186 190 190 192 202 208 229 257 292 297 298 308 302 285 284 281 275 278 273 267 263 260 258 257 258 260 262 267 265 256 254 252 249
227 215 199 196 190 189 190 188 189 181 176 173 178 181 185 201 218 262 290 296 301 300 295 291 287 284 279 278 277 274 270 264 261 258 257 257 260 263 264 262 253 248 245
241 204 197 190 185 183 177 171 173 171 167 165 169 170 179 197 216 239 288 305 309 301 295 291 290 286 282 281 278 278 276 272 263 259 257 256 256 260 262 259 257 245 243
239 214 195 188 179 175 171 162 160 159 163 169 171 163 153 153 174 278 307 316 314 307 300 298 293 288 287 281 280 276 274 273 274 265 258 256 256 257 259 256 253 250 242
199 183 176 174 166 164 159 156 160 155 151 143 135 126 122 110 80 348 321 310 315 310 307 307 301 292 289 286 285 284 281 275 273 274 271 260 259 258 256 252 249 244 245
120 136 146 150 157 157 161 159 155 140 133 128 121 105 94 65 4 326 310 309 309 305 302 300 301 300 292 288 289 280 277 273 269 264 261 263 259 256 254 252 246 246 245
107 112 114 117 123 131 137 124 134 134 131 132 126 104 73 358 317 303 295 298 298 298 296 296 297 299 293 288 281 289 288 277 270 263 256 256 266 263 258 251 249 246 245
102 105 106 107 108 112 118 119 119 119 128 140 120 187 297 303 295 293 292 290 287 286 290 291 291 293 293 292 283 271 281 269 296 291 287 269 264 272 268 264 258 247 246
104 105 106 105 104 103 110 110 106 127 150 122 264 291 307 300 299 299 297 296 294 292 289 286 283 288 289 287 286 276 259 265 281 286 280 281 272 265 269 269 270 266 256
117 110 105 103 99 97 96 107 125 119 137 271 300 312 307 304 305 303 302 302 298 294 290 289 284 282 283 285 283 277 278 273 265 264 280 279 279 273 257 261 267 266 260
128 124 117 105 98 97 97 89 94 118 270 292 301 305 303 305 304 303 305 305 302 297 292 288 286 281 278 282 287 287 279 270 274 273 259 264 273 276 280 282 264 270 268